This is the latest recevied weather packets stored in our database for station/object KE7JVX-3. If no packets are shown the sender has not sent any weather packets the latest 10 day(s).
| Time | Temp. | Humidity | Pressure | Rain* | Wind** | Luminosity | Snow |
|---|---|---|---|---|---|---|---|
| 1777943422 | 5.56° C | 48% | 1008.8 hPa | 0 mm | - | - | - |
| 1777942824 | 5.56° C | 47% | 1009 hPa | 0 mm | - | - | - |
| 1777942222 | 5.56° C | 45% | 1009 hPa | 0 mm | - | - | - |
| 1777941622 | 5.56° C | 44% | 1009.1 hPa | 0 mm | - | - | - |
| 1777940549 | 5.56° C | 44% | 1009 hPa | 0 mm | - | - | - |
| 1777939949 | 6.11° C | 43% | 1008.9 hPa | 0 mm | - | - | - |
| 1777939349 | 6.11° C | 42% | 1009.4 hPa | 0 mm | - | - | - |
| 1777938750 | 6.67° C | 41% | 1009.3 hPa | 0 mm | - | - | - |
| 1777938150 | 6.67° C | 42% | 1009.4 hPa | 0 mm | - | - | - |
| 1777937549 | 6.67° C | 40% | 1009.4 hPa | 0 mm | - | - | - |
| 1777936948 | 6.67° C | 37% | 1009.1 hPa | 0 mm | - | - | - |
| 1777936349 | 6.67° C | 36% | 1009.5 hPa | 0 mm | - | - | - |
| 1777935749 | 6.67° C | 35% | 1009.7 hPa | 0 mm | - | - | - |
| 1777935149 | 7.22° C | 36% | 1009.7 hPa | 0 mm | - | - | - |
| 1777934549 | 7.22° C | 37% | 1009.7 hPa | 0 mm | - | - | - |
| 1777934151 | 7.22° C | 37% | 1009.9 hPa | 0 mm | - | - | - |
| 1777933949 | 7.22° C | 37% | 1009.9 hPa | 0 mm | - | - | - |
| 1777933349 | 7.22° C | 36% | 1009.9 hPa | 0 mm | - | - | - |
| 1777933028 | 7.22° C | 40% | 1010.1 hPa | 0 mm | - | - | - |
| 1777932749 | 7.22° C | 40% | 1010.1 hPa | 0 mm | - | - | - |
| 1777932371 | 7.22° C | 39% | 1010.2 hPa | 0 mm | - | - | - |
| 1777932150 | 7.22° C | 39% | 1010.2 hPa | 0 mm | - | - | - |
| 1777931868 | 7.22° C | 38% | 1010.4 hPa | 0 mm | - | - | - |
| 1777931549 | 7.22° C | 38% | 1010.4 hPa | 0 mm | - | - | - |
| 1777931223 | 7.22° C | 41% | 1010.4 hPa | 0 mm | - | - | - |
* Rain latest hour (hover to see other rain measurements)
** Current wind speed in m/s (hover to see current wind gust speed)